Location: Stillwell
(40.4602°N, 82.0928°W)
Time: 22:54:22
(UTC-04:00)

Daily predictions for brighter satellites

Satellite Brightness Start Highest point End
(mag) Time Altitude Azimuth Time Altitude Azimuth Time Altitude Azimuth
SPOT 3 Rocket 4.1 18:59:18 10° SE 19:03:59 35° ENE 19:08:42 10° N
Cosmos 2366 rocket 4.0 19:04:10 10° S 19:10:23 80° E 19:16:34 10° N
EO 1 Del DPAF 3.5 19:06:41 10° NNE 19:10:26 48° E 19:14:09 10° S
Cosmos 2322 3.9 19:05:41 10° NNW 19:11:17 51° ENE 19:16:48 10° SE
Cosmos 1452 Rocket 3.7 19:06:46 10° N 19:11:54 51° ENE 19:17:01 10° SE
Cosmos 1315 Rocket 3.5 19:09:24 10° N 19:13:09 35° ENE 19:16:55 10° SE
Meteor 2-1 Rocket 4.4 19:09:00 10° S 19:14:39 58° E 19:20:26 10° NNE
ERS-2 2.2 19:12:02 10° SSE 19:15:44 85° WSW 19:19:27 10° NNW
Aureole 2 Rocket 4.5 19:16:06 10° NNE 19:18:20 15° ENE 19:20:31 10° E
Cosmos 2098 Rocket 4.4 19:14:47 10° SE 19:18:31 25° E 19:23:00 10° NNE
Meteor 1-11 4.5 19:13:39 10° NNW 19:19:27 80° W 19:25:08 10° S
COSMO-SKYMED 1 2.7 19:15:14 10° NNE 19:19:29 52° E 19:23:43 10° S
CZ-2C R/B 4.0 19:15:04 10° N 19:19:34 73° WNW 19:23:59 10° SSW
Landsat 4 4.2 19:17:14 10° N 19:20:56 62° WNW 19:24:35 10° SSW
Cosmos 2219 Rocket 3.3 19:19:18 10° N 19:23:45 24° NE 19:28:12 10° ESE
ALOS 2.8 19:20:33 10° SE 19:24:49 36° ENE 19:29:04 10° N
MTI 4.0 19:21:44 10° N 19:24:57 75° WNW 19:28:09 10° SSW
Cosmos 1726 3.3 19:24:15 10° SE 19:27:04 21° E 19:29:52 10° NE
Iridium 4 Rocket 4.2 19:23:28 10° SSE 19:28:35 39° E 19:33:59 10° NNE
Cosmos 1484 Rocket 4.5 19:28:11 10° SSW 19:31:39 36° W 19:35:06 10° NNW
Cosmos 1805 Rocket 4.4 19:28:37 10° NNE 19:32:25 28° ENE 19:36:13 10° SE
Meteor 1-28 Rocket 4.1 19:28:44 10° N 19:32:26 52° WNW 19:36:04 10° SSW
Lacrosse 5 rocket 4.1 19:34:06 10° NNW 19:34:36 10° NNW 19:35:06 10° N
SJ-6B 4.3 19:35:42 15° ENE 19:35:47 15° ENE 19:38:01 10° NNE
SL-24 R/B - RUBIN 2 3.7 19:31:28 10° NW 19:36:19 82° WSW 19:40:42 10° SSE
RESURS DK-1 2.6 19:34:27 10° NNW 19:38:35 72° WSW 19:42:40 10° SSE
METEOR-M 4.1 19:33:51 10° SSE 19:39:12 87° ENE 19:44:35 10° NNW
Cosmos 1703 3.7 19:36:02 10° NNW 19:39:56 66° W 19:43:48 10° S
Cosmos 2151 3.3 19:36:16 10° NNW 19:40:32 70° W 19:44:44 10° S
NOAA 12 4.1 19:35:46 10° SSE 19:40:57 60° ENE 19:46:12 10° N
SL-16 R/B 4.4 19:36:24 10° NW 19:41:11 29° WSW 19:45:57 10° SSW
MONITOR-E 4.1 19:38:10 10° S 19:41:14 85° WSW 19:44:19 10° NNW
YAOGAN 1 3.3 19:37:17 10° S 19:41:32 57° W 19:45:49 10° NNW
DELTA 2 R/B (1) 3.9 19:40:03 10° W 19:45:33 63° SSW 19:50:05 15° ESE
Cosmos 1821 Rocket 4.1 19:40:53 10° SSE 19:46:46 50° E 19:52:46 10° NNE
Cosmos 2333 4.4 19:41:29 10° NNW 19:47:06 53° ENE 19:52:42 10° SE
Atlas Centaur 2 3.6 19:43:50 10° SW 19:47:14 21° S 19:51:12 10° SE
Cosmos 1633 Rocket 4.2 19:44:29 10° NNE 19:47:58 22° ENE 19:48:39 21° E
Cosmos 1048 Rocket 3.9 19:43:35 10° S 19:48:38 63° ESE 19:53:42 10° NNE
Cosmos 1908 3.2 19:44:43 10° S 19:48:38 88° W 19:52:33 10° N
Cosmos 1934 Rocket 4.4 19:42:58 10° SSE 19:48:47 39° E 19:54:37 10° NNE
BREEZE-M DEB (TANK) 4.1 19:46:02 10° NW 19:50:27 73° NNE 20:09:34 10° ESE
Gbstr 26 Del rocket 3.9 19:45:45 10° NW 19:50:36 49° NNE 19:54:24 21° E
Cosmos 2237 4.2 19:44:57 10° NNW 19:50:42 87° ENE 19:56:26 10° SSE
GRACE-2 4.3 19:49:52 10° S 19:52:23 56° W 19:54:56 10° N
Cosmos 2058 3.9 19:48:55 10° NNW 19:52:57 49° W 19:56:57 10° SSW
Cosmos 2239 Rocket 4.5 19:47:24 10° SSE 19:53:20 56° E 19:59:21 10° NNE
Abrixas rocket 4.2 19:51:33 10° NW 19:54:03 20° N 19:55:19 16° NNE
APEX 2.5 19:51:47 10° SSW 19:55:02 85° WNW 19:57:10 16° NNE
Cosmos 1420 Rocket 4.0 19:50:01 10° NNW 19:55:22 89° WSW 20:00:39 10° SSE
Cosmos 44 2.9 19:51:45 10° SSW 19:56:07 83° ESE 20:00:11 12° NNE
Cosmos 158 Rocket 3.9 19:51:09 10° SSW 19:56:11 90° NNW 20:01:25 10° NNE
H-2A R/B 3.3 19:55:43 20° SE 19:57:49 36° ENE 20:01:26 10° N
Cosmos 2237 Rocket 3.3 19:53:23 10° N 19:58:00 24° NE 19:59:13 23° ENE
Cosmos 2227 Rocket 3.1 20:00:42 10° SSE 20:04:49 25° ESE 20:04:49 25° ESE
Thor Agena Rocket 3.5 20:01:19 10° NNE 20:06:21 60° ESE 20:11:20 10° S
BREEZE-M DEB (TANK) 2.1 20:05:09 10° W 20:07:04 37° NNW 20:07:22 35° N
SL-16 R/B 4.0 20:05:58 10° NNE 20:08:15 14° NE 20:08:15 14° NE
Delta 2 Rocket 3.9 20:06:52 10° WSW 20:10:22 36° S 20:11:17 30° SSE
Cosmos 2221 3.0 20:07:47 10° SSW 20:12:02 61° W 20:16:22 10° N
Cosmos 2123 Rocket 4.0 20:11:02 10° N 20:17:09 55° E 20:23:16 10° SSE
Cosmos 1300 2.6 20:14:24 10° S 20:18:10 61° E 20:20:01 28° NNE
FREGAT/IRIS 3.5 20:19:25 39° N 20:19:25 39° N 20:21:27 10° N
Cosmos 2360 Rocket 3.9 20:14:49 10° NW 20:19:52 34° WSW 20:24:55 10° SSW
Cosmos 1605 Rocket 4.1 20:15:20 10° SSE 20:21:08 47° E 20:26:55 10° NNE
Cosmos 1980 4.1 20:16:50 10° N 20:22:07 39° ENE 20:22:46 37° ENE
Cosmos 2084 4.0 20:19:45 10° NNW 20:22:37 34° NNE 20:22:37 34° NNE
Cosmos 44 Rocket 3.8 20:19:41 10° SW 20:24:18 56° NW 20:28:13 14° NNE
Cosmos 1331 Rocket 4.2 20:20:23 10° N 20:25:23 44° ENE 20:25:41 43° ENE
COSMOS 2428 2.9 20:21:33 10° NNW 20:27:13 70° WSW 20:32:52 10° SSE
Cosmos 2333 Rocket 2.2 20:24:41 10° NNW 20:30:24 65° ENE 20:32:29 39° SE
USA 267 3.5 20:28:50 37° E 20:30:35 44° SE 20:36:45 10° SSW
Cosmos 2219 3.5 20:27:16 10° SSW 20:32:59 68° WNW 20:38:44 10° NNE
CZ-4C R/B 2.5 20:32:11 10° SW 20:37:19 64° NW 20:41:54 17° NNE
Meteor 2-2 Rocket 4.1 20:31:57 10° S 20:37:36 66° E 20:43:12 10° NNE
Cosmos 2297 Rocket 3.4 20:37:20 10° S 20:39:56 26° SSE 20:39:56 26° SSE
Resurs 01 Rocket 3.4 20:47:33 20° N 20:47:33 20° N 20:49:03 10° N
NOSS 0 Rocket 3.8 20:46:56 10° NNW 20:53:09 87° ENE 20:54:41 54° SSE
Aureole 2 Rocket 3.7 20:49:48 10° NNW 20:53:35 46° WSW 20:54:01 44° SW
Cosmos 1447 Rocket 4.5 20:49:33 10° N 20:55:24 59° ENE 20:55:24 59° ENE
Sich 1 4.0 20:54:29 10° NNW 20:58:42 47° W 21:00:49 26° SSW
USA 234 4.2 21:05:13 31° NNE 21:05:37 31° NNE 21:11:11 10° NW
Cosmos 2219 Rocket 2.8 21:02:35 10° NNW 21:08:00 52° WSW 21:10:07 34° SSW
Cosmos 494 Rocket 4.2 21:03:50 10° SSW 21:08:27 65° WSW 21:08:27 65° WSW
Cosmos 1110 Rocket 4.3 21:06:46 10° NNW 21:12:01 62° WSW 21:12:13 62° WSW
MOS 1-B Rocket 3.9 21:12:48 69° SSW 21:13:25 77° WSW 21:19:31 10° NNW
Cosmos 2237 Rocket 3.2 21:36:50 10° NNW 21:41:05 43° WNW 21:41:05 43° WNW
Cosmos 2227 Rocket 3.7 21:43:35 10° SW 21:46:46 31° WSW 21:46:46 31° WSW
SL-16 R/B 4.1 21:48:06 10° NNW 21:50:09 23° NNW 21:50:09 23° NNW
USA 267 4.5 22:16:15 35° W 22:16:15 35° W 22:19:59 10° WSW
